AirNav   Phillips 66 Aviation Fuel
 
 463 users online  

7F5 Canton-Hackney Airport
Canton, Texas, USA

GOING TO CANTON?


FAA INFORMATION EFFECTIVE 16 AUGUST 2018

Location

FAA Identifier: 7F5
Lat/Long: 32-35-10.4820N / 095-51-45.8770W
32-35.174700N / 095-51.764617W
32.5862450 / -95.8627436
(estimated)
Elevation: 500 ft. / 152 m (estimated)
Variation: 06E (1985)
From city: 2 miles N of CANTON, TX
Time zone: UTC -5 (UTC -6 during Standard Time)
Zip code: 75103

Airport Operations

Airport use: Open to the public
Activation date: 06/1968
Control tower: no
ARTCC: FORT WORTH CENTER
FSS: FORT WORTH FLIGHT SERVICE STATION
NOTAMs facility: FTW (NOTAM-D service available)
Attendance: UNATNDD
Wind indicator: yes
Segmented circle: no
Lights: SS-SR

Airport Communications

CTAF: 122.9

Nearby radio navigation aids

VOR radial/distance  VOR name  Freq  Var
TYRr295/27.0TYLER VOR/DME114.2006E
CQYr031/30.0CEDAR CREEK VORTAC114.8006E
UIMr227/30.6QUITMAN VOR/DME114.0008E
FZTr325/35.0FRANKSTON VOR/DME111.4006E

 
NDB name  Hdg/Dist  Freq  Var  ID
TRAVIS112/22.126006EAVZ .- ...- --..
ATHENS350/25.726906EAHX .- .... -..-
CROSSROADS001/31.721508ECSZ -.-. ... --..
CADDO MILLS138/33.531606EMII -- .. ..
MESQUITE109/36.224803EPQF .--. --.- ..-.
AMBASSADOR263/37.940407EABG .- -... --.

Airport Services

Parking: tiedowns
Airframe service: NONE
Powerplant service: NONE
Bottled oxygen: NONE
Bulk oxygen: NONE

Runway Information

Runway 18/36

Dimensions: 3750 x 50 ft. / 1143 x 15 m
Surface: asphalt, in fair condition
Weight bearing capacity: 
Single wheel: 5.5
Runway edge lights: non-standard
NSTD LIRL; ONLY MIDDLE 1,200 FT OF RWY LGTD ON WEST SIDE ONLY
Runway edge markings: MARKINGS FADED.
NSTD SMALL RY NRS; ONLY 35 FT HIGH. NO DSPLCD THLD MARKINGS.
RUNWAY 18  RUNWAY 36
Gradient: 0.6%0.6%
Traffic pattern: leftleft
Displaced threshold: 103 ft.70 ft.
Markings: NSTD, in good conditionNSTD, in poor condition
Obstructions: none
+40 FT TREES AT THLD 75 FT R CNTRLN TO 100 FT FM THLD; 5 FT FENCE ACROSS APCH 50 FT FM THLD
15 ft. pline, marked, 200 ft. from runway
+15 FT OBSTN LGT POLES 176 FT FM THLD 65 FT R OF CNTRLN; ROAD 80 FT RIGHT OF CNTRLN AT THLD; +35 FT TREE AT THLD 100 FT L OF CNTRLN.

Airport Ownership and Management from official FAA records

Ownership: Publicly-owned
Owner: CITY OF CANTON
PO BOX 245
CANTON, TX 75103
Phone (903) 567-1841
Manager: WALT LEHMANN
PO BOX 245
CANTON, TX 75103
Phone (903) 288-0392
EMERGENCY PHONE: 903-567-4991.

Airport Operational Statistics

Aircraft operations: avg 50/month *
67% transient general aviation
33% local general aviation
* for 12-month period ending 11 May 2016

Additional Remarks

ARPT CLSD TO ACFT OVER 10,000 LBS.
RY 18/36 +2 FT POSTS AND CABLE 75 FT FM RY CNTRLN WEST SIDE OF RY.
RY 18/36 NO LINE OF SIGHT BTN THLDS.

Instrument Procedures

There are no published instrument procedures at 7F5.

Some nearby airports with instrument procedures:

3F9 - Mineola Airport-Wisener Field (19 nm E)
KJDD - Wood County Airport (21 nm NE)
KTRL - Terrell Municipal Airport (22 nm W)
F44 - Athens Municipal Airport (25 nm S)
KTYR - Tyler Pounds Regional Airport (27 nm SE)
 
Loc | Ops | Rwys | IFR | FBO | Links
Com | Nav | Svcs | Stats | Notes


 
Area around 7F5 (Canton-Hackney Airport)
 
Road maps at: MapQuest Bing Google
 
Aerial photo
WARNING: Photo may not be current or correct
Aerial photo of 7F5 (Canton-Hackney Airport)
Photo contributed by J. Herz

Do you have a better or more recent aerial photo of Canton-Hackney Airport that you would like to share? If so, please send us your photo.

 
Sectional chart

 
Airport distance calculator
Flying to Canton-Hackney Airport? Find the distance to fly.

From to 7F5

Sunrise and sunset
Times for 20-Aug-2018
 Local
(UTC-5)
 Zulu
(UTC)
Morning civil twilight06:2611:26
Sunrise06:5111:51
Sunset20:0201:02
Evening civil twilight20:2801:28

Current date and time
Zulu (UTC)  20-Aug-2018 06:07:37
Local (UTC-5)  20-Aug-2018 01:07:37
 
METAR
KJDD 
21nm NE 
200555Z AUTO 20005KT 10SM SCT080 29/21 A2988 RMK AO2
KTRL 
22nm W 
200553Z AUTO 00000KT 10SM CLR 27/23 A2988 RMK AO2 SLP110 60008 T02670233 10306 20261 403560256 51008
KF44 
25nm S 
200555Z AUTO 19003KT 10SM CLR 28/21 A2989 RMK AO2
KTYR 
27nm SE 
200553Z AUTO 20009KT 10SM CLR 30/21 A2989 RMK AO2 SLP112 T03000211 10344 20289 403610267 51010
KGVT 
31nm N 
200550Z AUTO 00000KT 10SM CLR 26/23 A2989 RMK AO2
KHQZ 
35nm W 
200555Z AUTO 00000KT 10SM CLR 25/23 A2988 RMK AO1 60001 T02500230 10279 20245 403550237
KF46 
36nm NW 
200555Z AUTO 20003KT 10SM CLR 27/22 A2988 RMK AO2 T02650220 10319 20265 403490227
KSLR 
37nm N 
200555Z AUTO 00000KT 10SM BKN075 27/25 A2989 RMK AO2 T02650245 10307 20265 403560244
TAF
KTYR 
27nm SE 
200539Z 2006/2106 19007KT P6SM SCT100 SCT250 FM201500 24013G21KT P6SM SCT025 SCT060 SCT250 FM210000 30007KT P6SM FEW120 SCT250
NOTAMs
Click for the latest NOTAMs
NOTAMs are issued by the DoD/FAA and will open in a separate window not controlled by AirNav.

 

 
 

Would you like to see your business listed on this page?

 If your business provides an interesting product or service to pilots, flight crews, aircraft, or users of the Canton-Hackney Airport, you should consider listing it here.  To start the listing process, click on the button below
 
Add a business
 

Other Pages about Canton-Hackney Airport

Update a link
 
Copyright © AirNav, LLC. All rights reserved. Privacy Policy  Contact